Flag for Norfolk Island Weather past 2 weeks in Kingston, Norfolk Island

Now
75 °F

Passing clouds.


Feels Like: 75 °F
Forecast: 69 / 76 °F
Wind: 13 mph from Northwest

Location: Norfolk Island Airport

Current Time: Mar 6, 2015 at 12:42:43 PM

Latest Report: Mar 6, 2015 at 11:30 AM


Visibility: N/A

Pressure: 29.74 "Hg

Humidity: 89%

Dew point: 72 °F

Location of KingstonLocation

Historic Weather in Kingston — Graph

°F

Kingston temperature yesterday

Maximum temperature yesterday: 77 °F (at 11:00 AM)
Minimum temperature yesterday: 70 °F (at 1:00 AM)
Average temperature yesterday: 72 °F

Past Weeks' High & Low Weather Summary

 TemperatureHumidityPressure
High77 °F (Feb 20, 1:33 PM)100% (Feb 27, 4:30 AM)30.12 "Hg (Feb 27, 4:30 AM)
Low66 °F (Feb 25, 4:00 AM)50% (Feb 20, 4:00 PM)29.71 "Hg (Mar 5, 3:30 PM)
Average72 °F82%29.89 "Hg
* Reported Feb 19 11:30 AM — Mar 6 11:30 AM, Kingston, Weather by CustomWeather, © 2015

Note: Actual official high and low records may vary slightly from our data, if they occured in-between our weather recording intervals... More about our weather records

Advertising

Kingston weather history for previous 24 hours

 ConditionsComfort  
Time TempWeatherWind HumidityBarometerVisibility
11:30 AM
Fri, Mar 6
75 °FPassing clouds.13 mph89%29.74 "HgN/A
11:00 AM75 °FPartly sunny.12 mph83%29.74 "HgN/A
10:30 AM77 °FPartly sunny.13 mph79%29.74 "HgN/A
10:00 AM75 °FPartly sunny.10 mph83%29.74 "HgN/A
9:30 AM75 °FPassing clouds.10 mph83%29.74 "HgN/A
9:00 AM75 °FPassing clouds.9 mph83%29.74 "HgN/A
8:00 AM72 °FDrizzle. Partly sunny.5 mph94%29.71 "Hg4 mi
7:30 AM72 °FDrizzle. Overcast.8 mph88%29.71 "Hg4 mi
7:00 AM72 °FMostly cloudy.8 mph83%29.71 "HgN/A
6:30 AM72 °FMostly cloudy.7 mph88%29.71 "HgN/A
5:30 AM72 °FPassing clouds.7 mph83%29.71 "HgN/A
4:30 AM72 °FClear.7 mph83%29.71 "HgN/A
3:30 AM72 °FClear.8 mph83%29.71 "HgN/A
3:00 AM70 °FClear.8 mph88%29.71 "HgN/A
2:30 AM70 °FClear.7 mph88%29.71 "HgN/A
1:30 AM68 °FClear.5 mph94%29.74 "HgN/A
1:00 AM70 °FClear.5 mph88%29.74 "HgN/A
12:30 AM68 °FClear.5 mph94%29.74 "HgN/A
12:00 AM68 °FClear.5 mph94%29.74 "HgN/A
11:30 PM
Thu, Mar 5
70 °FPassing clouds.2 mph83%29.74 "HgN/A
11:00 PM70 °FPassing clouds.No wind88%29.74 "HgN/A
10:30 PM70 °FPassing clouds.No wind88%29.74 "HgN/A
10:00 PM70 °FPassing clouds.No wind88%29.74 "HgN/A
9:30 PM70 °FPassing clouds.No wind94%29.74 "HgN/A
9:00 PM72 °FPassing clouds.No wind88%29.74 "HgN/A
8:30 PM70 °FPassing clouds.No wind94%29.74 "HgN/A
8:00 PM70 °FPassing clouds.No wind94%29.74 "HgN/A
7:30 PM70 °FPassing clouds.No wind94%29.71 "HgN/A
7:00 PM72 °FPassing clouds.3 mph83%29.71 "HgN/A
6:30 PM73 °FPassing clouds.7 mph78%29.71 "HgN/A
6:00 PM73 °FPassing clouds.7 mph78%29.71 "HgN/A
5:30 PM73 °FPassing clouds.8 mph83%29.71 "HgN/A
4:30 PM75 °FScattered clouds.9 mph78%29.71 "HgN/A
3:30 PM75 °FBroken clouds.10 mph78%29.71 "HgN/A
2:30 PM77 °FPassing clouds.9 mph74%29.74 "HgN/A
1:30 PM77 °FPartly sunny.9 mph74%29.74 "HgN/A
1:00 PM77 °FPassing clouds.10 mph74%29.77 "HgN/A
12:30 PM75 °FPassing clouds.9 mph74%29.77 "HgN/A
12:00 PM75 °FPassing clouds.7 mph78%29.77 "HgN/A
Weather by CustomWeather, © 2015

See weather overviewHow to use our weather pages